Memphis, TN

5:29 AM CST on February 20, 2017 (GMT -0600)
Memphis International

Weather History for KMEM - October, 2014

Change the Weather History Date:

Monday, October 27, 2014

  Actual Average Record
Temperature  
Mean Temperature 72 °F 60 °F  
Max Temperature 82 °F 71 °F 85 °F (1940)
Min Temperature 62 °F 50 °F 32 °F (1957)
Degree Days  
Heating Degree Days 0 6  
Month to date heating degree days 53 92  
Since 1 July heating degree days 54 103  
Cooling Degree Days 7 2  
Month to date cooling degree days 108 87  
Year to date cooling degree days 2159 2238  
Growing Degree Days 22 (Base 50)    
Moisture  
Dew Point 58 °F    
Average Humidity 62    
Maximum Humidity 87    
Minimum Humidity 37    
Precipitation  
Precipitation 0.00 in 0.14 in 2.37 in (1996)
Month to date precipitation 3.35 3.43  
Year to date precipitation 51.82 41.90  
Snow  
Snow 0.00 in 0.00 in 0.00 in (2002)
Month to date snowfall 0.0 0.0  
Since 1 July snowfall 0.0 0.0  
Since 1 September snowfall 0.0 0.0  
Snow Depth 0.00 in    
Sea Level Pressure  
Sea Level Pressure 29.93 in    
Wind  
Wind Speed 11 mph (SSW)    
Max Wind Speed 24 mph    
Max Gust Speed 30 mph    
Visibility 10 miles    
Events      
T = Trace of Precipitation, MM = Missing Value Source: NWS Daily Summary

Daily Weather History Graph

Daily Weather History Graph

Search for Another Location

Airport or City:

Trip Planner

Search our weather history database for the weather conditions in past years. The results will help you decide how hot, cold, wet, or windy it might be!

Date:

Astronomy

Oct. 27, 2014 Rise Set
Actual Time 7:16 AM CDT 6:10 PM CDT
Civil Twilight 6:50 AM CDT 6:36 PM CDT
Nautical Twilight 6:20 AM CDT 7:06 PM CDT
Astronomical Twilight 5:51 AM CDT 7:35 PM CDT
Moon 10:47 AM CDT (10/27) 9:21 PM CDT (10/27)
Length of Visible Light 11h 46m
Length of Day
10h 54m
Waxing Crescent, 15% of the Moon is Illuminated
Oct 27
Waxing Crescent
Oct 30
First Quarter
Nov 6
Full
Nov 14
Last Quarter
Nov 22
New

Hourly Weather History & Observations

Time (CDT) Temp. Heat Index Dew Point Humidity Pressure Visibility Wind Dir Wind Speed Gust Speed Precip Events Conditions
12:54 AM 68.0 °F - 62.1 °F 81% 29.91 in 10.0 mi South 9.2 mph - N/A   Clear
1:54 AM 68.0 °F - 61.0 °F 78% 29.91 in 10.0 mi SSW 9.2 mph - N/A   Clear
2:54 AM 68.0 °F - 61.0 °F 78% 29.91 in 10.0 mi SSW 8.1 mph - N/A   Clear
3:54 AM 64.9 °F - 61.0 °F 87% 29.92 in 10.0 mi SSW 4.6 mph - N/A   Clear
4:54 AM 64.0 °F - 59.0 °F 84% 29.93 in 10.0 mi SSW 6.9 mph - N/A   Clear
5:54 AM 64.9 °F - 59.0 °F 81% 29.95 in 10.0 mi SSW 6.9 mph - N/A   Partly Cloudy
6:54 AM 63.0 °F - 57.9 °F 84% 29.95 in 10.0 mi South 8.1 mph - N/A   Partly Cloudy
7:54 AM 64.0 °F - 57.9 °F 80% 29.97 in 10.0 mi South 8.1 mph - N/A   Partly Cloudy
8:54 AM 68.0 °F - 59.0 °F 73% 29.98 in 10.0 mi SSW 6.9 mph - N/A   Partly Cloudy
9:54 AM 72.0 °F - 59.0 °F 64% 29.99 in 10.0 mi SSW 8.1 mph - N/A   Partly Cloudy
10:54 AM 75.9 °F - 53.1 °F 45% 29.98 in 10.0 mi SSW 16.1 mph 23.0 mph N/A   Scattered Clouds
11:54 AM 78.1 °F - 52.0 °F 40% 29.97 in 10.0 mi SW 12.7 mph 19.6 mph N/A   Partly Cloudy
12:54 PM 80.1 °F 80.1 °F 55.0 °F 42% 29.94 in 10.0 mi SSW 18.4 mph 21.9 mph N/A   Partly Cloudy
1:54 PM 82.0 °F 81.3 °F 54.0 °F 38% 29.91 in 10.0 mi SSW 17.3 mph 25.3 mph N/A   Partly Cloudy
2:54 PM 82.0 °F 81.4 °F 55.0 °F 39% 29.91 in 10.0 mi South 16.1 mph 23.0 mph N/A   Partly Cloudy
3:54 PM 81.0 °F 80.7 °F 55.0 °F 41% 29.90 in 10.0 mi South 18.4 mph 24.2 mph N/A   Partly Cloudy
4:54 PM 80.1 °F 80.4 °F 57.0 °F 45% 29.89 in 10.0 mi SSW 12.7 mph 21.9 mph N/A   Partly Cloudy
5:54 PM 77.0 °F - 57.0 °F 50% 29.89 in 10.0 mi South 10.4 mph - N/A   Partly Cloudy
6:54 PM 73.9 °F - 57.0 °F 55% 29.90 in 10.0 mi South 10.4 mph - N/A   Partly Cloudy
7:54 PM 71.1 °F - 57.9 °F 63% 29.91 in 10.0 mi South 10.4 mph - N/A   Scattered Clouds
8:54 PM 69.1 °F - 57.9 °F 68% 29.92 in 10.0 mi South 6.9 mph - N/A   Scattered Clouds
9:54 PM 71.1 °F - 57.9 °F 63% 29.94 in 10.0 mi SSW 8.1 mph - N/A   Scattered Clouds
10:54 PM 71.1 °F - 57.9 °F 63% 29.94 in 10.0 mi SSW 12.7 mph - N/A   Scattered Clouds
11:54 PM 70.0 °F - 59.0 °F 68% 29.94 in 10.0 mi SSW 11.5 mph - N/A   Scattered Clouds